Current Version              Previous Version:    01  02  03  04  05  06  07  08  09  10  11  12  13  14  15  16  17  18  19  20  21  22  23  24  25  26  27  28  29  30  
   31  32  33  34  35  36  37  38  39  40  41  42  43  44  45  46  47  48  49  50  51  52  53  54  55  56  57  58  59  60  

[Printable]
078
ASUS44 KLUB 171010
RWRTX
WEST TEXAS WEATHER ROUNDUP
NATIONAL WEATHER SERVICE LUBBOCK TX
500 AM CDT WED SEP 17 2014

NOTE: "FAIR" INDICATES FEW OR NO CLOUDS BELOW 12,000 FEET WITH NO
SIGNIFICANT WEATHER AND/OR OBSTRUCTIONS TO VISIBILITY.

TXZ004-006>008-010-012-014-016-OKZ002-171100-
TEXAS PANHANDLE/OKLAHOMA PANHANDLE

CITY           SKY/WX    TMP DP  RH WIND       PRES   REMARKS
AMARILLO       PTCLDY    62  61  96 SW8       30.07F
BORGER         MOCLDY    68  62  81 SW7       30.03F
CANADIAN       MOCLDY    65  64  94 S3        29.99F
DALHART        MOCLDY    60  58  92 SW6       30.07F
DUMAS          MOCLDY    62  60  94 SW9       30.06S
GUYMON         MOCLDY    64  60  87 S9        29.98F
HEREFORD       CLOUDY    64  63  97 MISG      30.10F
PAMPA          MOCLDY    62  59  91 SW6       30.05F
PERRYTON       MOCLDY    64  61  90 SW9       30.00F
$$

TXZ026-029-035-045-048-171100-
SOUTHERN PANHANDLE/SOUTH PLAINS/ROLLING PLAINS

CITY           SKY/WX    TMP DP  RH WIND       PRES   REMARKS
CHILDRESS      MOCLDY    70  67  90 SW7       30.02F
SEMINOLE       CLOUDY    66  66  99 CALM      30.09F FOG
LUBBOCK        CLOUDY    67  65  93 N3        30.07F
PLAINVIEW      CLOUDY    65  63  93 CALM      30.07F
SNYDER         LGT RAIN  70  68  93 E3        30.04F
$$

TXZ052-054-060>062-072-078-127-140-154-169-171100-
PERMIAN BASIN/CONCHO VALLEY/BIG COUNTRY/EDWARDS PLATEAU

CITY           SKY/WX    TMP DP  RH WIND       PRES   REMARKS
ABILENE        CLOUDY    75  69  81 E3        30.01F
BIG SPRING     CLOUDY    74  69  85 E5        30.05F
BRADY          CLOUDY    72  72 100 SE5       30.00F
BROWNWOOD      CLOUDY    73  68  83 CALM      29.99F
JUNCTION       CLEAR     72  67  84 CALM      30.00F
MIDLAND        MOCLDY    71  66  84 E5        30.05S
ODESSA         MOCLDY    69  66  90 NE5       30.06F
SAN ANGELO     MOCLDY    73  68  84 E3        30.00F
SONORA         PTCLDY    70  68  94 CALM      30.05F
SWEETWATER     CLOUDY    73  69  88 CALM      30.06S
WINK           MOCLDY    72  65  78 E7        30.03S
$$

TXZ055-058-074-075-080-082-171100-
FAR WEST/SOUTHWEST MOUNTAINS/TRANS PECOS

CITY           SKY/WX    TMP DP  RH WIND       PRES   REMARKS
ALPINE         MOCLDY    62  59  90 W5        30.17F
DRYDEN           N/A     75  68  78 N7        29.99F
EL PASO        CLOUDY    69  63  81 N12       30.05F
FORT STOCKTON  MOCLDY    69  64  84 S8        30.04F
GUADALUPE PASS CLOUDY    62  61  96 NE23      30.17S FOG
MARFA          MOCLDY    59  57  94 N5        30.16F
PECOS          PTCLDY    70  65  83 NE5       30.02F
PRESIDIO       FAIR      74  63  68 NE8       30.00F
$$

TXZ014-016-019-021>030-083-171100
TEXAS TECH WEST TEXAS MESONET/TEXAS PANHANDLE/NORTHERN SOUTH PLAINS

CITY           SKY/WX    TMP DP  RH WIND       PRES   REMARKS
ABERNATHY 5ENE   N/A     64  63  94 CALM      30.09F
AMARILLO 9NNE    N/A     64  62  91 SW7       30.05S
AMARILLO 7SSE    N/A     61  61  98 SW7       30.08F
AMHERST 1NE      N/A     65  64  98 S2        30.10F
BOOTLEG 11WNW    N/A     62  60  95 W9        30.14F
CANADIAN 6E      N/A     66  62  89 NW3       29.98F
CAPROCK CYN SP   N/A     69  63  82 SW5       30.05F
CLARENDON 2WSW   N/A     66  61  83 SW8       30.03F
CLAUDE 12SW      N/A     65  63  93 SW6       30.07F
DIMMITT 2NE      N/A     63  61  96 S5        30.11S
FLOYDADA 2NNE    N/A     65  64  96 W2        30.07F
FRIONA 2NE       N/A     62  59  93 S1        30.12F
GOODLETT 3W      N/A     69  65  88 W3        29.98F
HART 3N          N/A     62  60  96 CALM      30.10S
HEREFORD 2NW     N/A     61  59  93 SW5       30.10F
MCLEAN 1E        N/A     68  62  81 W10       30.01F
MEMPHIS 1NE      N/A     64  61  92 CALM      30.01F
MULESHOE 2SSW    N/A     64  63  96 S3        30.10F
OLTON 6S         N/A     64  62  93 S3        30.09F
PALO DURO SP     N/A     62  61  96 S3        30.08F
PAMPA 2E         N/A     63  60  91 SW8       30.04F
PLAINVIEW 1S     N/A     65  63  94 SW2       30.08F
SILVERTON 7ESE   N/A     63  62  94 SW8       30.07F
TULIA 2ENE       N/A     64  63  94 SW7       30.09S
TURKEY 2WSW      N/A     66  64  91 SW7       30.03F
UMBARGER 3NNE    N/A     62  61  97 SW6       30.10S
$$

TXZ033>036-039>041-045>048-171100
TEXAS TECH WEST TEXAS MESONET/SOUTH PLAINS

CITY           SKY/WX    TMP DP  RH WIND       PRES   REMARKS
AIKEN 3WSW       N/A     65  64  97 SW5       30.09F
ANDREWS 2NE      N/A     68  65  90 NE3       30.07F
ANTON 6SSW       N/A     66  65  95 CALM      30.09S
BROWNFIELD 2S    N/A     66  64  94 CALM      30.08F
DENVR CTY 7WNW   N/A     65  62  93 E2        30.10S
GAIL 2ESE        N/A     69  67  93 NW2       30.04S
LAMESA 2SE       N/A     68  66  92 N2        30.07S
LEVELLAND 4S     N/A     65  63  92 S7        30.09F
LUBBOCK 3WNW     N/A     67  64  90 CALM      30.07F
MORTON 1ENE      N/A     65  64  95 S8        30.10F
ODONNELL 1N      N/A     66  64  93 CALM      30.07F
PLAINS 3N        N/A     65  63  93 E2        30.10F
RALLS 1SE        N/A     67  65  92 S2        30.07F
REESE CENTER     N/A     66  64  94 W1        30.08S
SEAGRAVES 1SW    N/A     65  64  94 N2        30.08F
SEMINOLE 2NNE    N/A     66  64  93 NE2       30.08F
SLATON 2NE       N/A     67  64  91 SE2       30.06F
SNYDER 3E        N/A     70  67  92 SE6       30.03F
SUNDOWN 8SW      N/A     65  63  94 S3        30.10F
TAHOKA 3NNE      N/A     67  65  94 SW1       30.06F
WOLFFORTH 6SSW   N/A     66  65  97 S5        30.08F
$$

TXZ031-032-036>038-042>044-171100-
TEXAS TECH WEST TEXAS MESONET/ROLLING PLAINS

CITY           SKY/WX    TMP DP  RH WIND       PRES   REMARKS
ASPERMONT 3NE    N/A     70  69  95 NE1       30.00F
FLUVANNA 3WNW    N/A     69  66  91 E3        30.05S
GRAHAM 5SSW      N/A     68  65  90 NW2       30.05F
GUTHRIE 10WSW    N/A     70  66  88 S2        30.01F
HASKELL 1NW      N/A     70  67  89 NE5       29.99F
JAYTON 1SSE      N/A     70  67  92 SW3       30.02F
KNOX CITY 3NW    N/A     72  67  84 SW1       30.00S
LK A HENRY 1NW   N/A     69  68  97 NE1       30.03F
ODELL 4ENE       N/A     70  67  91 S2        29.99F
PADUCAH 10SW     N/A     71  66  84 W2        30.01S
POST 1NE         N/A     68  67  98 CALM      30.04F
RRING SPRGS 3N   N/A     68  65  92 W5        30.05S
SEYMOUR 3NW      N/A     73  68  83 S1        29.98S
SPUR 1W          N/A     69  66  90 S2        30.02F
WEINERT 2NNE     N/A     71  69  93 S2        30.00F
WHITE RVR 6NE    N/A     69  65  84 SW1       30.05S
$$

TXZ052-054-060>062-072-078-127-140-154-169-171100-
TEXAS TECH WEST TEXAS MESONET/PERMIAN BASIN/
CONCHO VALLEY/BIG COUNTRY/EDWARDS PLATEAU

CITY           SKY/WX    TMP DP  RH WIND       PRES   REMARKS
COYANOSA 2N      N/A     70  64  82 E3        30.03S
JUNCTION 1SSW    N/A     69  69  98 CALM      30.01S
MERTZON 3NNE     N/A     72  68  86 S1        30.02F
SAN ANGELO 7NW   N/A     73  67  81 E5        30.00F
STRLNG CT 4WSW   N/A     71  66  84 E1        30.02F
ST LAWRNCE 5SW   N/A     68  65  92 E3        30.04S
SWEETWATR 11SW   N/A     71  68  89 W2        30.05R
WALL 1E          N/A     72  66  83 E2        30.01S
$$

TXZ055-058-074-075-080-082-171100-
TEXAS TECH WEST TEXAS MESONET/FAR WEST/SOUTHWEST MOUNTAINS/TRANS PECOS

CITY           SKY/WX    TMP DP  RH WIND       PRES   REMARKS
PRSMN GAP BBNP   N/A     71  65  80 N9        30.02S
GUADLPE MTN NP   N/A     63  58  83 N8        30.20S
$$